Ana Sayfa
METAR-TAF:

METAR-TAF

Havaalanları :

La Grande/Union County Airport

La Grande, Oregon, Amerika Birleşik Devletleri

Enlem: 45-17N, Boylam: 118-00W, yükseklik: 827 m

Güncel hava durumu gözlemi

Rapor saat 00:56 UTC de 1 saat ve 4 dakika önce yapıldı.
Rüzgar güney/güneydoğudan 10 kt
Sıcaklık 11°C
Nem 50%
Basınç 1010 hPa
Görüş mesafesi: 16.1 km
Açık gökyüzü

METAR: KLGD 190056Z AUTO 16010KT 10SM CLR 11/01 A2983 RMK AO2 SLP108 T01110011

Saat: 18:00 (02:00 UTC)


TAF: eksik

4.000'den fazla havaalanı için hava durumu gözlemleri ve tahminleri (METAR ve TAF raporları).

Kullanılabilir istasyonlar harita üzerinde sarı ve kırmızı noktalarla gösterilir.

İstasyonun adını görmek için fareyi noktanın üzerinde gezdirin.

Sonrasında hava gözlem ve tahminlerini görmek için tıklayın.

Haritayı değiştirmek için: yaklaştırmak için siyah artı işaretli yeşil düğmeye ve uzaklaştırmak için de eksi işaretli düğmeye hızla tıklayın; bitişik haritalar için yeşil okları kullanın.


METAR-TAF: